Overview Statistics Trail Chart Weather Telemetry Raw packets
 

This is the latest recevied weather packets stored in our database for station/object PA0HHN. If no packets are shown the sender has not sent any weather packets the latest 10 day(s).

<< 1 2 3 4 5 >>
Time Temp. Humidity Pressure Rain* Wind** Luminosity Snow
1788597002 17.22° C 88% 1010.2 hPa - - - -
1788596102 17.22° C 87% 1010.1 hPa - - - -
1788595200 16.11° C 90% 1009.8 hPa - - - -
1788594300 16.11° C 88% 1009.7 hPa - - - -
1788593402 16.11° C 89% 1009.7 hPa - - - -
1788592502 16.11° C 89% 1009.5 hPa - - - -
1788591600 16.11° C 89% 1009.2 hPa - - - -
1788590701 15° C 89% 1009.1 hPa - - - -
1788589800 15° C 89% 1008.9 hPa - - - -
1788588902 15° C 90% 1008.9 hPa - - - -
1788588002 13.89° C 92% 1009.1 hPa - - - -
1788587102 13.89° C 93% 1009 hPa - - - -
1788586202 12.78° C 94% 1008.7 hPa - - - -
1788585302 12.78° C 94% 1008.5 hPa - - - -
1788584400 12.78° C 94% 1008.5 hPa - - - -
1788583502 12.78° C 95% 1008.4 hPa - - - -
1788582600 12.78° C 95% 1008.3 hPa - - - -
1788581701 12.78° C 95% 1008.1 hPa - - - -
1788580803 12.78° C 95% 1008.1 hPa - - - -
1788579907 12.78° C 95% 1008.2 hPa - - - -
1788579000 12.78° C 95% 1008 hPa - - - -
1788578102 12.78° C 95% 1008.4 hPa - - - -
1788577202 12.78° C 96% 1008 hPa - - - -
1788576304 12.78° C 96% 1007.8 hPa - - - -
1788575402 12.78° C 96% 1007.9 hPa - - - -

* Rain since midnight (hover to see other rain measurements)
** Current wind speed in m/s (hover to see current wind gust speed)